This is the latest recevied weather packets stored in our database for station/object HOTSPR-3. If no packets are shown the sender has not sent any weather packets the latest 10 day(s).
| Time | Temp. | Humidity | Pressure | Rain* | Wind** | Luminosity | Snow |
|---|---|---|---|---|---|---|---|
| 1777650631 | 16.11° C | 69% | 1014.9 hPa | 0 mm | - | - | - |
| 1777650031 | 16.11° C | 73% | 1014.9 hPa | 0 mm | - | - | - |
| 1777649731 | 16.11° C | 73% | 1015.1 hPa | 0 mm | - | - | - |
| 1777648530 | 15° C | 76% | 1015.1 hPa | 0 mm | - | - | - |
| 1777647630 | 14.44° C | 76% | 1014.7 hPa | 0 mm | - | - | - |
| 1777647329 | 14.44° C | 76% | 1014.7 hPa | 0 mm | - | - | - |
| 1777646729 | 14.44° C | 76% | 1014.7 hPa | 0 mm | - | - | - |
| 1777646429 | 14.44° C | 76% | 1014.7 hPa | 0 mm | - | - | - |
| 1777646129 | 14.44° C | 77% | 1014.8 hPa | 0 mm | - | - | - |
| 1777645828 | 14.44° C | 76% | 1014.8 hPa | 0 mm | - | - | - |
| 1777645528 | 14.44° C | 77% | 1014.8 hPa | 0 mm | - | - | - |
| 1777644927 | 13.89° C | 76% | 1014.5 hPa | 0 mm | - | - | - |
| 1777643126 | 13.89° C | 75% | 1014.4 hPa | 0 mm | - | - | - |
| 1777642526 | 13.33° C | 75% | 1014.3 hPa | 0 mm | - | - | - |
| 1777641025 | 12.78° C | 71% | 1014.2 hPa | 0 mm | - | - | - |
| 1777640424 | 12.78° C | 69% | 1013.9 hPa | 0 mm | - | - | - |
| 1777640124 | 12.78° C | 69% | 1014 hPa | 0 mm | - | - | - |
| 1777638924 | 12.78° C | 66% | 1014.3 hPa | 0 mm | - | - | - |
| 1777638624 | 12.78° C | 66% | 1014.3 hPa | 0 mm | - | - | - |
| 1777638323 | 12.78° C | 65% | 1014.2 hPa | 0 mm | - | - | - |
| 1777638023 | 12.78° C | 65% | 1014.2 hPa | 0 mm | - | - | - |
| 1777637423 | 12.78° C | 64% | 1013.5 hPa | 0 mm | - | - | - |
| 1777637123 | 12.78° C | 64% | 1013.7 hPa | 0 mm | - | - | - |
| 1777636222 | 12.78° C | 65% | 1013.7 hPa | 0 mm | - | - | - |
| 1777635922 | 12.78° C | 65% | 1013.6 hPa | 0 mm | - | - | - |
* Rain since midnight (hover to see other rain measurements)
** Current wind speed in m/s (hover to see current wind gust speed)